Location: Billancourt
(48.8357°N, 2.2473°E)
Time: 13:46:53
(UTC+00:00)

Daily predictions for brighter satellites

Satellite Brightness Start Highest point End
(mag) Time Altitude Azimuth Time Altitude Azimuth Time Altitude Azimuth
CZ-4C R/B 3.4 20:30:09 10° NNE 20:34:17 74° ESE 20:38:25 10° S
Cosmos 1980 Rocket 4.0 20:29:43 10° NW 20:34:30 28° WSW 20:39:13 10° SSW
ATLAS 2AS CENTAUR R/B 3.1 20:29:57 10° NW 20:36:45 58° NE 20:43:18 10° ESE
Cosmos 2322 Rocket 2.6 20:31:15 10° NNW 20:36:52 58° ENE 20:42:28 10° SE
Meteor 1-22 Rocket 4.4 20:32:17 10° N 20:37:55 66° ENE 20:43:44 10° SSE
BREEZE-M DEB (TANK) 3.5 20:36:26 10° SW 20:39:53 52° SE 20:50:50 10° ENE
COSMOS 2406 3.9 20:35:45 10° SW 20:41:26 62° WNW 20:47:09 10° NNE
Meteor 2-10 Rocket 4.0 20:36:26 10° N 20:41:56 54° ENE 20:47:10 10° SSE
Cosmos 1674 4.0 20:39:42 10° SW 20:42:57 38° WNW 20:46:13 10° N
ARGOS Delta rocket 3.8 20:39:27 10° S 20:43:54 77° W 20:48:18 10° NNW
SL-4 R/B 2.6 20:44:54 10° W 20:48:39 57° N 20:52:40 10° ENE
Cosmos 1733 Rocket 3.9 20:44:40 10° N 20:48:47 37° ENE 20:52:54 10° SE
Cosmos 2278 4.1 20:43:56 10° NNW 20:49:36 64° WSW 20:55:13 10° SSE
Cosmos 1300 3.0 20:50:34 10° N 20:54:00 44° ENE 20:57:21 10° SSE
S3M 4.1 20:47:55 10° N 20:54:19 84° E 21:00:38 10° S
Ariane Rocket 3.1 20:49:24 10° SSE 20:54:25 67° ENE 20:59:30 10° N
Timation 1 Rocket 4.4 20:50:21 10° SSW 20:56:11 60° ESE 21:02:03 10° NE
SL-27 R/B 3.1 20:54:29 10° SSE 20:56:46 23° ESE 20:59:05 10° NE
Okean-O 4.0 20:53:28 10° SSW 20:57:32 36° W 21:01:38 10° NNW
Cosmos 1441 Rocket 4.1 20:55:27 10° NNW 20:58:53 43° W 21:02:21 10° SSW
Cosmos 1400 Rocket 2.7 20:56:41 10° S 21:00:32 74° E 21:04:23 10° NNE
Meteor 1-13 Rocket 4.4 20:55:25 10° SSW 21:01:13 81° WNW 21:06:55 10° N
Cosmos 2219 Rocket 3.1 20:56:03 10° NNW 21:01:24 40° NE 21:06:43 10° ESE
COSMOS 2428 4.4 20:58:09 10° N 21:02:47 25° NE 21:07:23 10° E
BREEZE-M DEB (TANK) 1.7 21:01:56 10° W 21:03:58 65° SSW 21:06:45 10° ESE
Cosmos 1356 Rocket 3.8 21:00:01 10° SSE 21:04:00 45° E 21:08:01 10° NNE
Cosmos 1908 4.4 21:01:01 10° NNW 21:04:22 37° W 21:07:42 10° SSW
Cosmos 2266 Rocket 4.1 20:59:19 10° S 21:05:40 86° E 21:12:08 10° N
USA 245 3.6 21:02:39 10° S 21:06:12 69° WSW 21:10:43 10° NNW
ATLAS CENTAUR R/B 1.3 21:03:14 10° SSW 21:06:33 42° ESE 21:09:58 10° NE
Cosmos 1850 Rocket 4.1 21:03:29 10° S 21:08:36 59° ESE 21:13:44 10° NNE
Cosmos 1655 Rocket 4.1 21:04:56 10° S 21:11:16 69° E 21:17:39 10° NNE
Cosmos 1869 Rocket 4.4 21:08:37 10° NNW 21:12:56 50° W 21:17:15 10° S
Meteor 1-4 Rocket 3.5 21:13:07 15° SE 21:14:43 22° E 21:17:06 10° NE
Cosmos 2228 Rocket 3.2 21:10:30 10° S 21:15:00 65° E 21:19:33 10° NNE
MOS 1 Rocket 3.7 21:10:37 10° SSE 21:16:01 84° WSW 21:21:20 10° NNW
Okean O Rocket 4.3 21:14:39 10° WSW 21:16:56 14° W 21:19:13 10° WNW
Cosmos 1953 3.6 21:14:59 10° NNE 21:18:13 25° ENE 21:20:51 13° ESE
Cosmos 1315 Rocket 4.1 21:17:28 14° SE 21:19:58 25° E 21:23:16 10° NE
Cosmos 968 Rocket 3.6 21:17:05 10° S 21:22:05 54° ESE 21:27:09 10° NNE
SPOT 3 Rocket 3.7 21:18:16 10° S 21:23:22 78° WSW 21:28:35 10° NNW
SeaSat 1 3.1 21:19:03 10° S 21:23:46 49° WSW 21:28:33 10° NW
Cosmos 2360 Rocket 2.3 21:20:57 10° NNW 21:26:40 82° WSW 21:31:30 15° SSE
Cosmos 1741 Rocket 4.0 21:23:49 10° SSW 21:29:05 82° ESE 21:34:26 10° NNE
Cosmos 1242 Rocket 4.1 21:29:31 12° E 21:29:59 12° E 21:31:10 10° ENE
BlueWalker 3 3.5 21:31:50 16° SE 21:31:50 16° SE 21:34:00 10° E
MetOp-A 4.1 21:28:25 15° SSE 21:32:49 72° ENE 21:38:04 10° N
Cosmos 1814 Rocket 4.1 21:27:40 10° NNW 21:33:00 76° ENE 21:37:16 16° SSE
Landsat 4 4.2 21:30:19 12° S 21:33:23 48° W 21:36:43 10° NNW
COSMOS 2455 4.5 21:35:30 13° SE 21:37:43 16° ESE 21:41:09 10° ENE
SL-16 R/B 3.4 21:33:14 10° NW 21:38:21 35° WSW 21:43:26 10° S
Landsat 5 3.4 21:36:33 10° NNE 21:40:34 68° ESE 21:44:10 13° S
USA 234 3.2 21:34:30 10° NE 21:41:05 85° SE 21:47:38 10° SW
Cosmos 2333 Rocket 2.4 21:36:50 10° NNW 21:42:35 69° WSW 21:47:09 16° SSE
SL-14 R/B 3.8 21:40:04 10° SSW 21:43:48 56° WNW 21:47:33 10° N
Cosmos 1703 Rocket 4.5 21:43:34 18° SE 21:46:10 34° E 21:50:12 10° NNE
Cosmos 1862 Rocket 3.6 21:42:41 10° S 21:47:02 83° W 21:51:30 10° N
Cosmos 1346 Rocket 3.4 21:44:20 10° NNW 21:48:04 49° W 21:51:09 14° SSW
Okean 3 3.4 21:46:07 14° S 21:49:43 87° E 21:53:55 10° N
DNEPR-1 R/B 4.4 21:43:22 10° NW 21:50:14 90° SW 21:54:25 18° SE
Cosmos 1455 2.3 21:49:45 10° N 21:53:12 51° ENE 21:55:03 24° SE
Cosmos 1408 4.4 21:55:12 12° E 21:55:36 12° E 21:56:46 10° ENE
Atlas Centaur 2 4.5 21:51:45 10° SW 21:56:11 16° SSW 21:58:33 14° S
Cosmos 1833 4.1 21:51:08 10° SSW 21:56:46 85° ESE 22:02:26 10° NNE
EXPRESS MD2 2.2 21:55:18 10° W 21:57:44 65° N 21:59:45 11° E
CZ-4C R/B 3.5 21:58:28 14° ESE 21:59:11 15° ESE 22:01:58 10° ENE
RESURS DK-1 4.2 21:56:38 10° WNW 21:59:45 21° WSW 22:02:41 11° SSW
H-2A R/B 3.9 21:58:41 15° ESE 22:01:25 29° ENE 22:05:06 10° N
Cosmos 2237 Rocket 3.8 21:56:53 10° NNW 22:01:41 27° NE 22:06:26 10° ESE
Cosmos 1932 4.4 21:57:02 10° SSW 22:03:20 70° ESE 22:09:35 10° NE
SJ 16-02 1.3 22:00:22 10° SSW 22:04:40 83° WNW 22:09:02 10° NNE
Meteor 1-16 Rocket 4.5 21:59:20 10° NNW 22:05:16 72° W 22:09:50 17° S
Terra 3.6 22:01:37 10° SSW 22:05:26 24° W 22:09:16 10° NW
Cosmos 2322 3.9 21:59:52 10° NNW 22:05:33 67° ENE 22:09:35 20° SE
CZ-2C R/B 4.0 22:02:48 10° NNE 22:07:04 46° E 22:09:29 23° SSE
Aureole 3 4.1 22:07:01 12° SSW 22:10:37 60° WNW 22:15:34 10° N
Cosmos 2322 Rocket 3.7 22:15:52 10° NW 22:20:32 27° WSW 22:24:47 12° SSW
ARIANE 5 R/B 2.5 22:23:17 27° SSE 22:25:39 84° ENE 22:30:00 10° NNW
NOSS 5 (C) 4.3 22:23:30 10° NW 22:26:42 74° NE 22:27:59 32° SE
ATLAS 2AS CENTAUR R/B 3.4 22:21:13 10° NW 22:27:27 39° WSW 22:31:35 19° S
SL-4 R/B 2.1 22:23:44 10° WNW 22:27:42 74° NNE 22:31:55 10° ESE
Cosmos 2297 Rocket 3.5 22:27:17 20° SE 22:29:17 24° ESE 22:33:41 10° NE
Okean 1-7 3.6 22:30:05 16° SSW 22:33:23 54° WNW 22:37:39 10° N
USA 281 3.2 22:34:22 23° SSE 22:38:47 78° WSW 22:45:25 10° NNW
Cosmos 1745 Rocket 4.0 22:34:59 22° S 22:39:14 74° E 22:45:36 10° NNE
Cosmos 1908 Rocket 4.2 22:36:57 10° NNW 22:41:09 48° W 22:43:32 23° SSW
GP-B 3.2 22:36:58 10° N 22:41:22 73° W 22:43:50 26° SSW
Spot 4 4.0 22:41:21 27° SSE 22:43:57 66° ENE 22:48:44 10° N
Cosmos 1782 Rocket 3.5 22:39:45 10° N 22:44:06 85° W 22:46:09 31° S
ATLAS CENTAUR R/B 3.4 22:41:23 10° W 22:44:21 24° NW 22:47:25 10° NNE
Cosmos 2219 Rocket 3.0 22:40:05 10° NW 22:45:21 40° WSW 22:48:35 21° SSW
Nadezhda 1 Rocket 4.0 22:40:16 10° N 22:46:35 80° W 22:50:31 24° S
COSMOS 2428 2.7 22:41:56 10° NNW 22:47:39 77° WSW 22:50:54 27° SSE
Meteor 2-5 Rocket 4.5 22:46:15 24° SSE 22:49:18 42° E 22:54:46 10° NNE
BREEZE-M DEB (TANK) 3.2 22:48:01 10° WNW 22:51:48 37° N 22:53:49 10° ENE
Cosmos 1953 3.8 22:50:44 10° NNW 22:54:00 27° W 22:55:58 18° SW
Cosmos 2098 Rocket 4.5 22:48:21 10° N 22:54:51 54° ENE 22:58:50 23° SE
Cosmos 1315 Rocket 4.4 22:52:43 12° SW 22:56:00 31° WNW 22:59:35 10° N
H-2A R/B 3.8 22:55:01 10° NE 22:57:58 18° E 22:59:07 17° ESE
PSLV R/B 4.0 22:55:41 10° N 22:59:41 69° WNW 23:01:43 27° SSW
Cosmos 1300 Rocket 3.6 22:56:59 10° NNW 23:01:16 69° W 23:03:09 32° S
Cosmos 1242 Rocket 3.6 23:00:40 21° WSW 23:01:43 27° WNW 23:04:09 10° N
Cosmos 304 Rocket 4.1 23:03:17 31° SSE 23:05:07 49° ESE 23:09:43 10° NNE
Cosmos 158 Rocket 4.2 23:02:29 10° NNW 23:07:43 60° WSW 23:10:13 29° S
BlueWalker 3 1.7 23:06:00 13° WSW 23:09:15 77° SSE 23:13:00 10° ENE
Cosmos 2151 Rocket 4.5 23:05:14 10° N 23:09:23 39° ENE 23:11:26 24° SE
Cosmos 2360 Rocket 4.4 23:06:54 10° WNW 23:09:44 14° W 23:12:33 10° SW
Cosmos 405 Rocket 3.2 23:07:08 10° N 23:10:48 48° ENE 23:12:07 32° SE
Okean 2 Rocket 3.9 23:11:41 10° N 23:15:58 42° ENE 23:18:04 25° SE
ALOS 2 2.5 23:14:27 35° SSE 23:16:18 86° WSW 23:20:43 10° NNW
Cosmos 546 4.5 23:15:51 10° WNW 23:19:43 81° SSW 23:22:00 24° ESE
Cosmos 1674 Rocket 4.4 23:20:04 28° SE 23:21:35 37° E 23:25:35 10° NNE
Cosmos 1378 Rocket 4.1 23:20:47 31° SE 23:22:18 44° E 23:26:29 10° NNE
COSMOS 2455 2.8 23:18:35 21° SSW 23:22:42 81° ESE 23:28:46 10° NE
USA 234 4.2 23:17:35 10° ENE 23:23:52 51° NNW 23:30:08 10° W
NOSS 0 Rocket 4.1 23:20:17 10° NW 23:26:25 60° WSW 23:29:40 28° S
CENTAUR R/B 3.4 23:24:42 23° SE 23:26:36 28° ESE 23:32:07 10° NE
Cosmos 1408 3.3 23:27:13 29° WSW 23:27:58 34° WNW 23:30:46 10° N
Cosmos 773 Rocket 4.0 23:24:31 10° NNW 23:29:39 71° WSW 23:32:01 32° S
Cosmos 1703 3.4 23:34:51 37° SW 23:36:05 60° WNW 23:39:45 10° N
H-2A R/B 3.6 23:34:40 25° SW 23:36:15 33° W 23:40:09 10° NNW
Cosmos 2221 Rocket 4.1 23:34:52 32° SSE 23:36:31 48° E 23:40:47 10° NNE
Cosmos 1892 3.0 23:37:30 38° SE 23:38:11 44° E 23:41:33 10° NNE
Cosmos 1709 Rocket 4.3 23:34:37 22° SSW 23:38:48 62° WNW 23:45:07 10° N
SL-16 R/B 3.2 23:34:03 10° NNW 23:39:27 42° NE 23:44:44 10° ESE
Cosmos 1174 4.0 23:34:39 10° NW 23:39:45 84° NE 23:41:41 32° SE
Sich 1 Rocket 3.6 23:37:12 10° N 23:41:37 74° E 23:43:22 36° SSE
Cosmos 2242 Rocket 4.4 23:39:46 23° SW 23:42:13 45° WNW 23:46:37 10° N
SJ 16-02 4.1 23:41:46 10° WNW 23:43:45 13° NW 23:45:47 10° NNW
Cosmos 1777 Rocket 4.0 23:43:34 31° SSW 23:46:13 82° ESE 23:51:31 10° NNE
Cosmos 2237 Rocket 2.2 23:40:36 10° NNW 23:46:14 67° WSW 23:48:59 31° S
CZ-4C R/B 1.9 23:43:30 24° SW 23:46:23 85° NW 23:52:11 10° NE
Cosmos 1503 Rocket 4.0 23:43:28 28° SSW 23:46:23 85° WNW 23:51:43 10° NNE
BREEZE-M DEB (TANK) 2.8 23:38:53 10° W 23:48:27 88° SSW 23:51:31 10° ESE
Cosmos 2227 Rocket 2.5 23:50:16 30° S 23:52:49 54° ESE 23:58:21 10° NE
GEOS 3 Rocket 4.2 23:50:12 10° NE 23:55:03 40° ESE 23:56:49 30° SSE
